Gallup, NM

9:27 PM MDT on March 27, 2017 (GMT -0600)
Gallup Municipal

Weather History for KGUP - September, 2013

Change the Weather History Date:

Wednesday, September 25, 2013

  Actual Average Record
Temperature  
Mean Temperature 60 °F -  
Max Temperature 79 °F 74 °F 86 °F (2014)
Min Temperature 41 °F 37 °F 22 °F (1993)
Degree Days  
Heating Degree Days 6    
Growing Degree Days 10 (Base 50)    
Moisture  
Dew Point 28 °F    
Average Humidity 32    
Maximum Humidity 65    
Minimum Humidity 13    
Precipitation  
Precipitation 0.00 in - - ()
Sea Level Pressure  
Sea Level Pressure 29.61 in    
Wind  
Wind Speed 8 mph (SSW)    
Max Wind Speed 26 mph    
Max Gust Speed 41 mph    
Visibility 10 miles    
Events      
Averages and records for this station are not official NWS values.
T = Trace of Precipitation, MM = Missing Value Source: NWS Daily Summary

Daily Weather History Graph

Daily Weather History Graph

Search for Another Location

Airport or City:

Trip Planner

Search our weather history database for the weather conditions in past years. The results will help you decide how hot, cold, wet, or windy it might be!

Date:

Astronomy

Sep. 25, 2013 Rise Set
Actual Time 7:05 AM MDT 7:07 PM MDT
Civil Twilight 6:40 AM MDT 7:32 PM MDT
Nautical Twilight 6:10 AM MDT 8:02 PM MDT
Astronomical Twilight 5:40 AM MDT 8:31 PM MDT
Moon 11:27 PM MDT (9/25) 1:03 PM MDT (9/25)
Length of Visible Light 12h 52m
Length of Day
12h 01m
Waning Gibbous, 63% of the Moon is Illuminated
Sep 25
Waning Gibbous
Sep 26
Last Quarter
Oct 4
New
Oct 11
First Quarter
Oct 18
Full

Hourly Weather History & Observations

Time (MDT) Temp. Windchill Dew Point Humidity Pressure Visibility Wind Dir Wind Speed Gust Speed Precip Events Conditions
12:53 AM 54.0 °F - 28.9 °F 38% 29.72 in 10.0 mi Calm Calm - N/A   Clear
1:53 AM 48.0 °F - 30.0 °F 50% 29.72 in 10.0 mi Calm Calm - N/A   Clear
2:53 AM 45.0 °F - 28.9 °F 53% 29.72 in 10.0 mi Calm Calm - N/A   Clear
3:53 AM 44.1 °F 42.5 °F 28.9 °F 55% 29.70 in 10.0 mi NE 3.5 mph - N/A   Clear
4:53 AM 43.0 °F - 30.0 °F 60% 29.69 in 10.0 mi Calm Calm - N/A   Clear
5:53 AM 43.0 °F - 30.9 °F 62% 29.70 in 10.0 mi Calm Calm - N/A   Clear
6:53 AM 41.0 °F - 30.0 °F 65% 29.74 in 10.0 mi Calm Calm - N/A   Clear
7:53 AM 50.0 °F - 33.1 °F 52% 29.75 in 10.0 mi Calm Calm - N/A   Clear
8:53 AM 61.0 °F - 34.0 °F 36% 29.70 in 10.0 mi SSW 6.9 mph - N/A   Clear
9:53 AM 68.0 °F - 33.1 °F 27% 29.66 in 10.0 mi SSW 13.8 mph 19.6 mph N/A   Clear
10:53 AM 72.0 °F - 28.9 °F 20% 29.64 in 10.0 mi SSW 26.5 mph 32.2 mph N/A   Clear
11:53 AM 73.9 °F - 35.1 °F 24% 29.60 in 10.0 mi SW 25.3 mph 36.8 mph N/A   Clear
12:53 PM 75.9 °F - 32.0 °F 20% 29.55 in 10.0 mi SW 23.0 mph 32.2 mph N/A   Clear
1:53 PM 77.0 °F - 30.9 °F 19% 29.53 in 10.0 mi SW 25.3 mph 41.4 mph N/A   Clear
2:53 PM 78.1 °F - 30.9 °F 18% 29.52 in 10.0 mi SW 26.5 mph 40.3 mph N/A   Clear
3:53 PM 78.1 °F - 26.1 °F 15% 29.51 in 10.0 mi SSW 26.5 mph 34.5 mph N/A   Clear
4:53 PM 77.0 °F - 21.9 °F 13% 29.52 in 10.0 mi SW 26.5 mph 38.0 mph N/A   Clear
5:53 PM 75.0 °F - 24.1 °F 15% 29.53 in 10.0 mi SW 26.5 mph 35.7 mph N/A   Clear
6:53 PM 71.1 °F - 21.0 °F 15% 29.57 in 10.0 mi SW 23.0 mph 32.2 mph N/A   Clear
7:53 PM 66.9 °F - 21.0 °F 17% 29.53 in 10.0 mi SSW 13.8 mph - N/A   Clear
8:53 PM 64.0 °F - 21.0 °F 19% 29.50 in 10.0 mi SSW 17.3 mph - N/A   Clear
9:53 PM 61.0 °F - 23.0 °F 23% 29.48 in 10.0 mi SSW 10.4 mph - N/A   Clear
10:53 PM 55.0 °F - 24.1 °F 30% 29.51 in 10.0 mi South 6.9 mph - N/A   Clear
11:53 PM 55.9 °F - 24.1 °F 29% 29.50 in 10.0 mi SSW 8.1 mph - N/A   Clear